Location: Bannatyne
(13.0833°N, 59.5333°W)
Time: 17:32:20
(UTC+00:00)

Transit 2A - Pass Details

Date: 02 February 2020
Orbit: 600 x 959 km, 66.7° (Epoch: 21 February)

Event Time Altitude Azimuth Distance (km) Brightness Sun altitude
Rises 07:10:16 0° 358° (N) 3,190 - -46.8°
Reaches altitude 10° 07:12:53 10° 10° (N) 2,327 - -46.2°
Maximum altitude 07:17:26 28° 68° (ENE) 1,520 - -45.1°
Exits shadow 07:20:58 16° 116° (ESE) 2,120 8.7 -44.3°
Drops below altitude 10° 07:22:20 10° 125° (SE) 2,528 9.2 -43.9°
Sets 07:25:17 0° 137° (SE) 3,519 10.0 -43.2°
